Time,TemperatureF,DewpointF,PressureIn,WindDirection,WindDirectionDegrees,WindSpeedMPH,WindSpeedGustMPH,Humidity,HourlyPrecipIn,Conditions,Clouds,dailyrainin,SoftwareType,DateUTC
2013-05-04 00:00:00,39.0,22.0,-100.00,East,90,13.0,20.0,51,-99.99,,,-99.99,,2013-05-04 07:00:00,
2013-05-04 01:00:00,41.0,29.0,-100.00,ENE,67,16.0,27.0,62,-99.99,,,-99.99,,2013-05-04 08:00:00,
2013-05-04 02:00:00,40.0,29.0,-100.00,ENE,73,18.0,28.0,65,-99.99,,,-99.99,,2013-05-04 09:00:00,
2013-05-04 03:00:00,39.0,30.0,-100.00,ENE,67,17.0,28.0,69,-99.99,,,-99.99,,2013-05-04 10:00:00,
2013-05-04 04:00:00,38.0,23.0,-100.00,ENE,59,27.0,36.0,55,-99.99,,,-99.99,,2013-05-04 11:00:00,
2013-05-04 05:00:00,37.0,22.0,-100.00,ENE,57,27.0,41.0,55,-99.99,,,-99.99,,2013-05-04 12:00:00,
2013-05-04 06:00:00,36.0,24.0,-100.00,ENE,65,15.0,30.0,61,-99.99,,,-99.99,,2013-05-04 13:00:00,
2013-05-04 07:00:00,37.0,27.0,-100.00,East,82,22.0,38.0,68,-99.99,,,-99.99,,2013-05-04 14:00:00,
2013-05-04 08:00:00,39.0,30.0,-100.00,NE,39,25.0,43.0,69,-99.99,,,-99.99,,2013-05-04 15:00:00,
2013-05-04 09:00:00,39.0,28.0,-100.00,NE,54,29.0,41.0,64,-99.99,,,-99.99,,2013-05-04 16:00:00,
2013-05-04 10:00:00,40.0,27.0,-100.00,North,1,33.0,52.0,60,-99.99,,,-99.99,,2013-05-04 17:00:00,
2013-05-04 15:00:00,48.0,26.0,-100.00,NNW,338,15.0,35.0,42,-99.99,,,-99.99,,2013-05-04 22:00:00,
2013-05-04 16:00:00,49.0,26.0,-100.00,East,82,20.0,32.0,40,-99.99,,,-99.99,,2013-05-04 23:00:00,
2013-05-04 17:00:00,53.0,25.0,-100.00,East,100,17.0,29.0,33,-99.99,,,-99.99,,2013-05-05 00:00:00,
2013-05-04 18:00:00,52.0,25.0,-100.00,ENE,67,20.0,35.0,35,-99.99,,,-99.99,,2013-05-05 01:00:00,
2013-05-04 19:00:00,52.0,25.0,-100.00,East,81,15.0,25.0,35,-99.99,,,-99.99,,2013-05-05 02:00:00,
2013-05-04 20:00:00,48.0,29.0,-100.00,NE,45,12.0,22.0,47,-99.99,,,-99.99,,2013-05-05 03:00:00,
2013-05-04 21:00:00,42.0,27.0,-100.00,NE,56,17.0,33.0,56,-99.99,,,-99.99,,2013-05-05 04:00:00,
2013-05-04 22:00:00,41.0,27.0,-100.00,East,82,23.0,39.0,58,-99.99,,,-99.99,,2013-05-05 05:00:00,
2013-05-04 23:00:00,41.0,29.0,-100.00,ENE,66,28.0,47.0,61,-99.99,,,-99.99,,2013-05-05 06:00:00,